Temperature
18 18 18 18 18 18 17 17 17 17 17 17 17 17 17 17 17 17 17 18 18 18 18 18 18 18 18 18 18 18 18 18 18 18 18 18 18 18 18 18 18 17 18
18 18 18 18 18 18 17 17 17 17 17 17 17 17 17 17 17 17 17 17 17 17 17 17 17 18 18 18 18 18 18 18 18 18 18 18 18 18 18 18 17 17 17
18 18 18 18 18 18 17 17 17 17 17 17 17 17 17 17 17 17 17 17 17 17 17 17 17 17 17 17 18 18 18 17 17 17 17 17 17 18 18 17 17 17 17
18 18 18 18 18 17 17 17 17 17 17 17 17 17 17 17 17 17 17 17 17 17 17 17 17 17 17 17 17 17 17 17 17 17 17 17 17 17 17 17 17 17 17
18 18 18 18 18 18 17 17 17 17 17 17 17 17 17 17 17 17 17 17 17 17 17 17 17 17 17 17 17 17 17 17 17 17 17 17 17 17 17 17 17 17 17
18 18 18 18 18 18 17 17 17 17 17 17 17 17 17 17 17 17 17 17 17 17 17 17 17 17 17 17 17 17 17 17 17 17 17 17 17 17 17 17 17 17 17
18 18 18 18 18 18 18 17 17 17 17 17 17 17 17 17 17 17 16 17 17 17 17 17 17 17 17 17 17 17 17 17 17 16 17 17 17 17 17 17 17 17 17
18 18 18 18 18 17 17 17 17 17 17 17 17 17 17 17 17 17 16 17 17 17 17 17 17 17 17 17 17 17 17 16 16 16 16 16 17 17 17 17 17 16 17
18 18 18 18 18 17 17 17 17 17 17 17 17 17 17 17 16 17 17 16 17 17 17 17 17 17 17 17 17 17 17 16 16 16 16 16 16 17 17 16 16 16 16
19 18 18 18 18 17 17 17 17 17 17 17 17 17 16 16 16 16 16 16 16 17 17 17 17 17 17 17 16 16 16 16 16 16 16 16 16 16 16 16 16 16 16
19 18 18 18 18 17 17 17 17 17 17 17 17 16 16 16 16 16 16 16 16 16 16 16 16 16 16 16 16 16 16 16 16 16 16 16 16 16 16 16 16 16 16
19 19 18 18 18 17 17 17 17 17 17 17 16 16 16 16 16 16 16 16 16 16 16 16 16 16 16 16 16 16 16 16 16 16 16 16 16 16 16 16 16 16 16
19 19 18 18 18 17 17 17 17 17 17 16 16 16 16 16 16 16 16 16 16 16 16 16 16 16 16 16 16 16 16 16 16 16 16 16 16 16 16 16 16 16 15
19 18 18 18 18 17 17 17 17 17 16 16 16 16 16 16 16 16 16 16 16 16 16 16 16 16 16 16 16 16 16 15 15 15 15 16 16 16 16 15 15 15 15
19 18 18 18 18 17 17 17 17 17 16 16 16 16 16 16 16 16 16 16 16 16 16 16 16 16 16 16 16 16 15 15 15 15 15 15 15 15 15 15 15 15 15
19 18 18 18 18 17 17 17 17 16 16 16 16 16 16 16 16 16 16 16 16 16 16 16 16 16 16 16 15 15 15 15 15 15 15 15 15 15 15 15 15 15 15
19 19 18 18 18 17 17 17 17 16 16 16 16 16 16 16 16 16 16 16 16 15 15 15 15 15 15 15 15 15 15 15 15 15 15 15 15 15 15 15 15 15 15
19 19 18 18 17 17 17 17 16 16 16 16 16 16 16 16 16 16 16 16 15 15 15 15 15 15 15 15 15 15 15 15 15 14 15 14 14 14 14 14 14 14 14
19 19 18 18 17 17 17 16 16 16 16 16 16 16 16 16 16 16 15 15 15 15 15 15 15 15 15 15 15 15 15 15 15 14 14 14 14 14 14 14 14 14 14
19 19 18 18 17 17 17 16 16 16 16 16 16 16 15 16 16 15 15 15 15 15 15 15 15 15 15 15 15 15 15 15 14 14 14 14 14 14 14 14 14 14 14
19 18 18 17 17 17 16 16 16 16 16 15 15 15 15 15 15 15 15 15 15 15 15 15 15 14 14 15 15 14 14 14 14 14 14 14 14 14 14 13 14 13 13
18 18 18 17 17 17 16 16 16 15 15 15 15 15 15 15 15 15 15 15 14 14 14 14 14 14 14 14 14 14 14 14 14 14 14 14 14 14 13 13 13 13 13
18 18 18 17 17 16 16 16 16 15 15 15 15 15 15 15 15 15 14 14 14 14 14 14 14 14 14 14 14 14 14 14 14 14 14 14 14 14 13 13 13 13 13
18 18 17 17 17 16 16 16 16 15 15 15 15 15 15 15 14 14 14 14 14 14 14 14 14 14 14 14 14 15 15 14 14 14 14 14 13 13 13 13 13 13 13
18 17 17 17 17 16 16 16 15 15 15 15 15 15 14 14 14 14 14 14 14 14 14 14 14 14 14 14 14 14 14 14 14 14 13 13 13 13 13 13 13 13 13
17 17 17 17 16 16 16 15 15 15 15 15 15 14 14 14 14 14 14 14 14 14 14 14 14 14 14 14 14 14 14 14 14 14 13 13 13 13 13 13 13 13 13
Wind_Speed
7 10 10 10 9 10 9 10 10 10 10 11 11 10 10 10 10 9 9 9 9 9 9 9 10 10 10 10 10 10 9 9 8 7 8 8 8 7 7 6 6 7 8
9 12 11 10 9 9 9 9 10 10 10 11 10 10 9 9 9 9 8 8 9 9 9 9 9 10 10 10 9 9 8 8 6 5 6 8 8 7 7 8 8 7 7
10 13 11 10 9 9 9 9 9 9 10 10 9 9 9 9 9 8 8 8 9 9 9 9 9 9 10 10 9 9 8 7 6 4 3 6 8 8 8 8 8 8 7
10 12 11 10 9 9 9 9 9 8 9 9 8 9 9 8 8 8 8 8 8 9 9 10 10 9 9 9 8 8 7 7 7 6 5 7 8 9 9 8 8 8 7
10 13 11 10 9 9 9 9 9 8 8 8 8 8 8 8 7 7 8 8 8 9 9 9 9 9 8 8 7 7 7 7 8 7 8 11 10 10 10 9 8 8 8
9 12 12 10 9 8 8 8 8 8 8 8 8 8 7 7 7 7 8 8 8 9 9 9 9 9 8 8 7 7 7 8 7 8 9 10 9 10 10 10 9 8 8
8 11 12 10 9 8 7 7 7 7 7 7 7 7 7 6 7 7 8 8 8 9 9 9 9 8 8 7 7 7 8 7 5 8 9 10 10 11 11 10 10 9 9
7 9 12 10 9 8 7 7 6 6 6 6 6 6 6 6 7 7 7 8 8 8 8 9 8 8 8 7 7 7 8 8 7 9 10 11 12 11 11 11 10 10 10
6 7 8 10 9 9 8 7 6 5 5 4 4 4 5 5 6 7 7 8 8 8 8 8 8 8 7 6 6 6 8 9 8 8 10 10 12 12 12 11 11 12 11
5 5 6 6 7 8 9 8 6 6 4 4 3 4 4 4 5 7 8 8 8 7 7 7 6 6 6 5 4 5 7 8 8 10 9 10 12 12 12 12 12 13 13
6 4 4 5 5 5 6 8 7 6 5 5 5 4 4 4 6 7 8 8 7 7 6 5 4 3 3 3 3 4 4 5 9 9 9 11 12 12 12 12 12 13 13
5 3 4 4 4 4 4 6 4 4 5 4 4 5 3 5 6 7 9 8 6 6 4 3 2 1 0 1 2 3 4 7 9 9 9 12 12 12 12 12 12 12 12
6 4 4 3 4 4 3 3 3 2 3 3 4 3 4 5 6 7 6 5 4 4 2 2 2 1 2 3 4 5 7 9 10 10 11 12 12 12 11 12 12 12 12
6 5 3 3 4 4 5 3 3 2 2 3 3 4 4 2 3 3 3 3 3 2 2 2 1 4 5 5 6 7 9 9 9 10 11 13 11 11 12 12 12 12 12
6 5 4 4 4 3 3 2 4 2 2 4 3 4 4 3 2 3 3 3 3 3 3 3 3 5 5 6 8 8 7 9 10 10 10 13 13 13 13 13 13 13 13
5 5 5 4 4 4 3 2 3 3 4 4 4 3 4 4 3 3 3 3 3 3 4 4 4 4 4 5 6 7 7 8 9 10 10 12 14 14 14 14 14 13 13
5 6 5 4 4 4 4 4 4 4 5 4 4 3 4 5 5 4 3 2 3 4 5 5 5 4 3 4 5 5 6 7 7 8 10 10 11 14 14 14 14 13 13
5 6 6 4 4 5 5 4 3 5 5 4 5 4 5 6 6 5 3 2 4 5 4 3 3 3 4 4 4 4 4 5 6 7 7 10 10 11 12 14 14 13 13
5 6 6 5 5 5 4 4 4 4 4 4 5 4 5 6 6 5 3 3 4 4 3 3 3 3 3 3 4 3 3 3 3 5 5 8 10 11 11 13 13 13 13
4 5 6 6 4 5 3 3 3 4 3 4 4 4 5 5 6 5 3 4 4 3 3 3 3 3 2 2 3 4 3 3 3 4 4 6 8 10 10 10 10 11 12
4 4 5 5 4 4 3 3 3 2 2 2 3 4 5 5 5 5 3 3 3 3 3 3 2 2 1 2 3 2 2 3 3 3 3 3 5 8 9 9 9 9 10
3 2 4 4 4 4 3 2 2 2 2 2 2 3 2 3 4 4 3 3 3 2 3 3 2 1 1 0 1 1 1 3 3 3 2 3 4 5 6 8 9 9 10
3 2 3 4 4 4 3 2 2 3 2 2 2 1 2 3 3 3 4 3 2 2 2 2 1 1 1 1 0 1 2 1 1 2 2 3 3 3 4 6 8 10 11
3 3 3 4 4 3 3 3 3 2 2 1 1 2 2 3 3 2 3 3 2 2 2 1 1 1 1 0 1 1 1 3 2 1 1 2 3 4 3 4 7 10 11
4 3 3 4 4 3 3 3 3 2 1 1 2 2 2 2 2 2 2 2 1 1 1 1 1 0 0 1 0 0 1 1 1 3 1 1 2 2 2 3 5 8 10
4 3 3 3 3 3 2 3 2 2 2 2 2 2 2 1 1 2 2 1 2 2 1 1 1 1 0 0 0 1 1 1 1 2 2 2 2 1 2 2 5 6 9
Wind_Direction
95 95 87 76 71 68 67 65 65 69 68 66 62 61 62 65 66 63 61 60 60 61 62 61 59 57 59 60 59 58 58 61 72 80 83 81 75 69 64 57 62 72 76
100 100 90 79 74 72 71 70 70 71 69 66 63 61 64 67 68 67 65 66 65 65 65 63 64 61 60 60 58 59 59 59 67 77 90 87 78 72 65 61 60 68 70
100 103 91 79 76 75 72 71 71 72 71 69 67 64 66 69 69 69 68 68 69 68 67 67 66 65 63 61 58 57 55 48 43 41 75 100 86 73 69 65 68 69 69
95 94 91 87 78 77 75 71 68 72 71 69 69 68 67 69 71 71 71 70 69 69 70 68 66 65 63 59 56 52 45 32 28 36 56 73 78 75 71 67 70 71 69
92 97 99 95 85 80 76 73 71 72 73 71 71 73 71 69 72 73 73 72 72 71 69 69 68 67 64 59 52 44 33 29 32 43 60 69 72 73 69 67 68 69 69
98 102 110 105 98 90 82 77 74 74 74 75 77 77 76 72 70 72 71 72 73 73 73 72 69 65 62 59 50 38 32 37 38 55 64 73 75 74 71 69 66 65 67
97 107 117 119 116 110 97 85 80 79 77 79 79 78 76 75 74 75 73 73 77 77 75 73 69 66 64 59 48 36 31 42 54 66 64 69 74 74 73 70 64 63 63
99 110 122 132 132 128 112 100 94 92 87 84 82 81 82 85 85 82 78 78 83 81 79 74 70 69 69 60 48 41 35 32 62 74 69 71 75 75 75 72 68 67 64
98 113 129 142 146 144 131 124 119 112 108 103 98 95 95 95 97 95 89 85 87 87 84 81 76 75 72 62 52 41 36 36 44 59 68 70 73 73 74 73 70 68 65
99 98 113 124 136 146 148 146 147 138 138 139 135 133 125 122 121 106 98 93 92 93 92 89 83 84 80 70 50 33 34 42 53 61 63 71 72 74 76 75 74 72 69
82 86 106 114 112 119 137 142 155 158 168 173 175 171 154 136 131 118 106 106 103 102 103 99 93 93 90 76 49 49 41 71 73 67 62 74 74 74 75 78 78 76 73
99 86 86 98 104 98 99 119 138 145 163 175 155 153 150 108 105 109 118 118 120 119 124 124 132 142 169 103 80 64 65 72 75 72 66 74 75 76 75 78 77 76 76
97 84 70 86 100 104 95 101 100 96 127 127 111 121 118 109 114 119 130 134 144 143 157 150 195 202 116 82 80 82 69 68 72 70 66 71 75 77 78 79 78 77 76
93 90 71 75 83 84 90 94 97 85 86 96 112 108 105 100 101 112 117 126 124 101 68 82 68 54 52 70 74 75 74 77 81 80 69 68 74 77 81 81 80 77 77
106 99 76 63 78 86 97 110 102 96 77 92 89 99 108 102 104 101 98 92 86 81 60 52 49 54 44 45 57 63 67 76 87 87 78 71 74 76 78 79 79 78 77
115 103 88 74 73 74 75 82 96 91 83 75 71 73 101 107 97 89 86 78 71 79 73 68 61 59 58 56 54 57 62 72 89 98 94 80 73 74 76 77 77 76 78
116 109 100 89 79 77 74 63 76 72 70 63 68 57 68 77 92 88 90 86 73 76 73 60 56 48 64 72 64 56 58 59 75 93 100 99 87 75 75 75 74 74 80
106 106 101 88 85 77 74 71 65 72 73 60 62 48 58 74 84 86 82 83 82 84 80 71 56 52 56 64 67 57 61 52 59 81 93 102 101 93 84 82 79 76 82
106 108 109 96 89 85 82 81 62 65 67 63 60 48 47 62 82 92 86 88 81 77 77 80 68 66 70 73 80 66 61 55 50 67 76 92 102 104 100 88 83 79 79
94 106 108 97 89 96 94 90 82 70 66 61 61 49 49 54 66 83 91 86 85 80 74 71 72 61 66 65 77 75 70 69 57 52 55 75 94 103 105 104 95 82 78
89 100 107 108 107 100 89 88 91 82 77 76 76 58 51 58 59 71 75 72 81 92 104 99 91 83 69 84 81 66 50 59 70 72 58 63 81 92 99 100 99 95 88
119 124 118 114 108 103 96 99 114 118 111 108 90 82 71 65 65 82 80 78 79 80 79 78 87 96 64 88 117 112 74 36 27 58 69 74 78 80 88 95 95 92 92
129 136 127 117 112 112 116 105 96 97 88 88 97 99 90 80 67 66 92 99 96 91 92 104 116 122 152 296 52 120 134 148 63 23 54 78 82 80 78 88 93 94 92
134 138 129 126 122 115 120 117 117 119 121 127 130 133 130 109 98 80 87 100 113 125 128 163 154 177 146 215 318 347 102 131 137 107 13 53 77 78 75 75 83 90 95
113 112 108 100 104 107 114 123 131 120 136 127 124 133 125 119 112 103 97 113 139 134 162 169 117 108 125 199 190 61 49 57 118 135 140 73 58 64 82 82 90 95 98
100 95 95 99 103 107 121 142 141 140 157 143 144 134 120 116 136 134 140 155 179 168 174 155 137 114 51 277 113 124 138 139 150 140 153 151 116 79 75 82 97 103 105
Height
1522 1520 1520 1519 1519 1518 1518 1518 1518 1518 1518 1518 1519 1519 1519 1520 1520 1520 1521 1521 1521 1521 1521 1521 1522 1521 1521 1522 1522 1522 1522 1523 1523 1523 1523 1524 1524 1524 1524 1524 1525 1525 1525
1523 1521 1521 1520 1520 1520 1519 1519 1519 1519 1519 1520 1520 1520 1520 1521 1521 1521 1522 1522 1522 1522 1522 1522 1523 1523 1523 1523 1523 1523 1523 1524 1524 1524 1524 1524 1524 1524 1525 1525 1525 1525 1525
1524 1522 1522 1521 1521 1521 1521 1521 1521 1521 1521 1521 1521 1521 1522 1522 1522 1522 1523 1523 1523 1523 1523 1524 1523 1524 1524 1524 1524 1524 1525 1525 1525 1525 1525 1525 1525 1525 1525 1525 1525 1525 1526
1525 1523 1523 1523 1522 1522 1522 1522 1522 1522 1522 1522 1523 1523 1523 1523 1523 1524 1524 1524 1524 1524 1525 1525 1524 1525 1525 1525 1525 1526 1526 1526 1526 1526 1526 1526 1526 1526 1525 1525 1526 1526 1526
1525 1524 1524 1524 1524 1524 1524 1524 1524 1523 1523 1524 1524 1524 1524 1524 1524 1525 1525 1525 1525 1525 1525 1525 1525 1526 1526 1526 1526 1527 1527 1527 1527 1527 1527 1527 1527 1527 1526 1526 1526 1526 1526
1526 1525 1525 1525 1525 1525 1525 1525 1525 1525 1525 1525 1525 1525 1525 1525 1525 1525 1526 1526 1526 1526 1526 1526 1526 1527 1527 1527 1527 1528 1528 1528 1528 1528 1528 1528 1528 1527 1527 1526 1527 1527 1527
1527 1526 1526 1526 1526 1526 1526 1526 1526 1526 1526 1526 1526 1526 1526 1526 1526 1526 1527 1527 1527 1527 1527 1527 1528 1528 1528 1528 1529 1529 1529 1530 1530 1529 1529 1529 1529 1528 1528 1527 1528 1528 1528
1528 1527 1527 1527 1527 1526 1527 1527 1527 1527 1527 1527 1527 1527 1527 1527 1528 1528 1528 1528 1528 1528 1528 1529 1529 1529 1529 1529 1530 1530 1530 1531 1531 1531 1530 1530 1530 1529 1529 1529 1529 1528 1528
1529 1528 1528 1527 1527 1527 1527 1528 1528 1528 1528 1528 1528 1528 1529 1529 1529 1529 1529 1529 1529 1529 1530 1530 1530 1530 1531 1531 1531 1532 1532 1532 1532 1532 1531 1531 1531 1530 1530 1530 1530 1529 1529
1530 1530 1529 1529 1529 1528 1528 1528 1529 1529 1529 1529 1529 1529 1529 1530 1530 1530 1530 1530 1530 1531 1531 1531 1532 1532 1533 1533 1533 1533 1533 1533 1533 1533 1533 1533 1532 1532 1531 1531 1531 1530 1530
1530 1530 1530 1529 1529 1529 1529 1529 1529 1530 1530 1530 1530 1531 1531 1531 1531 1531 1531 1532 1532 1532 1533 1533 1533 1534 1534 1535 1535 1535 1535 1535 1534 1534 1534 1534 1534 1533 1532 1532 1532 1532 1531
1531 1531 1531 1530 1530 1530 1530 1530 1530 1531 1531 1531 1532 1532 1532 1533 1533 1533 1533 1533 1533 1534 1534 1535 1535 1536 1536 1536 1537 1537 1536 1536 1535 1535 1535 1535 1535 1534 1534 1534 1533 1533 1533
1531 1531 1531 1531 1531 1531 1531 1531 1531 1531 1532 1532 1533 1533 1533 1534 1534 1534 1534 1534 1535 1535 1536 1536 1537 1537 1537 1538 1538 1538 1538 1538 1537 1537 1537 1537 1536 1536 1535 1535 1535 1535 1534
1531 1531 1532 1532 1532 1531 1531 1531 1531 1532 1532 1533 1533 1534 1534 1534 1535 1535 1535 1536 1536 1537 1537 1538 1538 1539 1539 1540 1540 1540 1539 1539 1539 1538 1538 1538 1537 1537 1537 1537 1536 1536 1536
1531 1532 1532 1532 1532 1532 1532 1532 1532 1532 1533 1533 1534 1534 1535 1535 1535 1536 1537 1537 1538 1538 1539 1539 1539 1540 1540 1541 1541 1541 1541 1540 1540 1540 1540 1540 1539 1539 1538 1538 1538 1537 1537
1531 1532 1532 1532 1532 1532 1532 1532 1532 1533 1533 1533 1534 1535 1535 1535 1536 1536 1537 1538 1538 1539 1540 1540 1540 1541 1541 1542 1542 1542 1542 1542 1542 1541 1541 1541 1541 1540 1540 1540 1539 1539 1538
1531 1531 1532 1532 1533 1533 1533 1533 1533 1533 1533 1534 1534 1535 1536 1536 1536 1537 1537 1538 1539 1540 1540 1541 1541 1542 1542 1543 1543 1544 1544 1544 1544 1544 1543 1543 1543 1542 1542 1541 1541 1541 1540
1531 1531 1532 1532 1533 1533 1533 1533 1533 1534 1534 1534 1535 1535 1536 1536 1537 1537 1538 1538 1539 1540 1541 1541 1542 1542 1543 1544 1544 1545 1545 1545 1546 1546 1545 1545 1544 1544 1544 1544 1543 1543 1542
1531 1531 1532 1532 1533 1533 1533 1533 1534 1534 1534 1535 1535 1535 1536 1536 1537 1537 1538 1539 1540 1541 1541 1542 1543 1543 1544 1544 1545 1546 1546 1547 1547 1547 1547 1547 1547 1546 1546 1546 1545 1545 1545
1530 1531 1531 1532 1533 1533 1533 1534 1534 1534 1535 1535 1535 1535 1536 1536 1537 1537 1538 1539 1540 1541 1541 1542 1543 1544 1545 1545 1546 1547 1548 1548 1548 1549 1549 1549 1549 1548 1548 1547 1547 1547 1546
1530 1531 1531 1532 1532 1533 1533 1534 1534 1534 1535 1535 1535 1536 1536 1537 1537 1537 1538 1539 1540 1541 1542 1543 1543 1544 1545 1546 1547 1547 1549 1549 1549 1550 1550 1550 1550 1550 1550 1549 1549 1548 1548
1529 1530 1531 1531 1532 1532 1533 1534 1534 1535 1535 1535 1536 1536 1536 1537 1537 1537 1538 1539 1540 1541 1542 1542 1543 1544 1545 1547 1548 1548 1549 1551 1551 1551 1551 1551 1551 1551 1551 1551 1551 1550 1549
1528 1529 1530 1531 1532 1532 1533 1533 1534 1535 1535 1535 1536 1536 1536 1537 1537 1538 1538 1539 1540 1541 1541 1542 1543 1544 1545 1546 1547 1548 1549 1550 1551 1552 1552 1552 1552 1552 1552 1552 1552 1551 1551
1526 1528 1529 1530 1531 1531 1532 1533 1533 1534 1534 1535 1535 1536 1536 1537 1537 1538 1538 1539 1540 1540 1541 1542 1543 1544 1545 1545 1546 1547 1548 1549 1550 1551 1552 1552 1552 1552 1553 1553 1553 1552 1551
1525 1527 1528 1529 1530 1530 1531 1532 1533 1533 1534 1535 1535 1535 1536 1536 1537 1537 1538 1539 1539 1540 1541 1542 1543 1543 1544 1545 1545 1546 1547 1548 1549 1550 1551 1552 1552 1552 1553 1553 1553 1553 1552
1524 1525 1527 1528 1529 1529 1530 1531 1532 1533 1533 1534 1534 1535 1535 1536 1536 1537 1538 1538 1539 1539 1540 1541 1542 1542 1543 1544 1544 1545 1546 1547 1548 1549 1549 1550 1551 1552 1553 1553 1553 1553 1553